Date String (YYYY-MM-DD hh:mm:ss) UTC,Instrument flags,absolute air pressure of the measurement (hPa),sample flow rate (lpm),inlet stack bypass flow (lpm),air temperature of the measurement (°C),ambient temperature measured by the external sensor (°C),aerosol sample conditioner tube jacket temperature (°C),OPC LED temperature (°C),internal box temperature (°C),relative humidity of the measurement (%),span deviation,mass concentration of particles derived from Lorenz-Mie calculation of OPC scattering (μg/m³),mass concentration of particles derived from Lorenz-Mie calculation of OPC scattering (μg/m³),mass concentration of particles derived from Lorenz-Mie calculation of OPC scattering (μg/m³)
DateTimeUTC,F1_M11,P_M11,Q1_M11,Q2_M11,T1_M11,T2_M11,T3_M11,T4_M11,T5_M11,U1_M11,ZSPAN_M11,X0_M11,X2_M11,X1_M11
2023-09-28 14:00:00,SystemResetWarning,0828.6,5.00,000.00,028.8,025.2,000.0,037.4,030.2,11.6,0000.3,0013.64,0005.98,0004.93
2023-09-28 14:01:00,SystemResetWarning,0828.7,5.00,000.00,028.7,025.6,000.0,037.4,030.2,12.5,0001.1,0013.00,0005.96,0004.93
2023-09-28 14:02:00,SystemResetWarning,0828.6,5.00,000.00,028.7,026.0,000.0,037.3,030.2,11.2,0001.1,0012.59,0005.94,0004.92
2023-09-28 14:03:00,SystemResetWarning,0828.7,5.00,000.00,028.7,026.3,000.0,037.3,030.3,11.2,0001.6,0012.50,0005.94,0004.92
2023-09-28 14:04:00,SystemResetWarning,0828.6,5.00,000.00,028.7,026.5,000.0,037.3,030.3,13.0,0002.1,0012.39,0005.91,0004.93
2023-09-28 14:05:00,SystemResetWarning,0828.7,5.00,000.00,028.7,026.7,000.0,037.3,030.3,13.4,0001.6,0012.36,0005.86,0004.93
2023-09-28 14:06:00,SystemResetWarning,0828.7,4.99,000.00,028.7,026.9,000.0,037.3,030.4,13.8,0001.5,0012.20,0005.77,0004.91
2023-09-28 14:07:00,SystemResetWarning,0828.7,5.00,000.00,028.7,027.1,000.0,037.3,030.4,13.8,0001.3,0011.61,0005.74,0004.91
2023-09-28 14:08:00,SystemResetWarning,0828.7,5.00,000.00,028.7,027.2,000.0,037.3,030.4,13.6,0001.6,0011.51,0005.75,0004.90
2023-09-28 14:09:00,SystemResetWarning,0828.7,5.00,000.00,028.7,027.3,000.0,037.3,030.5,12.7,0001.7,0011.70,0005.74,0004.89
2023-09-28 14:10:00,SystemResetWarning,0828.7,5.00,000.00,028.8,027.4,000.0,037.3,030.5,11.1,0001.6,0011.49,0005.72,0004.89
2023-09-28 14:11:00,SystemResetWarning,0828.7,5.00,000.00,028.8,027.5,000.0,037.3,030.5,10.9,0001.3,0010.58,0005.69,0004.88
2023-09-28 14:12:00,SystemResetWarning,0828.7,5.01,000.00,028.8,027.5,000.0,037.3,030.6,10.6,0000.9,0010.58,0005.66,0004.85
2023-09-28 14:13:00,SystemResetWarning,0828.6,4.99,000.00,028.8,027.6,000.0,037.3,030.6,11.0,0001.8,0010.55,0005.65,0004.86
2023-09-28 14:14:00,SystemResetWarning,0828.7,4.99,000.00,028.9,027.6,000.0,037.3,030.6,11.3,0001.7,0010.64,0005.64,0004.87
2023-09-28 14:15:00,SystemResetWarning,0828.7,4.99,000.00,028.9,027.7,000.0,037.3,030.7,12.0,0002.3,0011.14,0005.70,0004.87
2023-09-28 14:16:00,SystemResetWarning,0828.7,5.00,000.00,028.9,027.7,000.0,037.3,030.7,11.5,0002.9,0011.60,0005.74,0004.87
2023-09-28 14:17:00,SystemResetWarning,0828.6,5.00,000.00,028.9,027.8,000.0,037.4,030.7,11.2,0004.0,0011.67,0005.76,0004.87
2023-09-28 14:18:00,SystemResetWarning,0828.6,5.01,000.00,029.0,027.8,000.0,037.4,030.7,11.4,0004.4,0011.95,0005.78,0004.89
2023-09-28 14:19:00,SystemResetWarning,0828.7,5.00,000.00,029.0,027.9,000.0,037.4,030.8,12.0,0004.3,0011.80,0005.73,0004.90
2023-09-28 14:20:00,SystemResetWarning,0828.7,5.00,000.00,029.0,027.9,000.0,037.4,030.8,11.3,0004.3,0011.40,0005.70,0004.91
2023-09-28 14:21:00,SystemResetWarning,0828.6,4.99,000.00,029.0,027.0,000.0,037.4,030.8,12.0,0004.8,0011.11,0005.69,0004.92
2023-09-28 14:22:00,SystemResetWarning,0828.7,5.00,000.00,029.0,025.2,000.0,037.3,030.5,11.6,0004.5,0010.95,0005.64,0004.93
2023-09-28 14:23:00,SystemResetWarning,0828.6,5.02,000.00,028.9,024.9,000.0,037.3,030.4,12.1,0000.0,0010.86,0005.64,0004.96
2023-09-28 14:24:00,SystemResetWarning,0828.6,5.00,000.00,028.8,025.2,000.0,037.3,030.3,12.5,0000.0,0010.84,0005.63,0004.96
2023-09-28 14:25:00,SystemResetWarning,0828.6,4.99,000.00,028.7,025.5,000.0,037.3,030.2,12.4,0000.0,0010.65,0005.61,0004.97
2023-09-28 14:26:00,SystemResetWarning,0828.6,5.00,000.00,028.7,025.8,000.0,037.3,030.2,12.2,0000.0,0010.26,0005.57,0004.97
2023-09-28 14:27:00,SystemResetWarning,0828.6,5.01,000.00,028.7,026.1,000.0,037.3,030.3,12.8,0000.0,0009.74,0005.52,0004.99
2023-09-28 14:28:00,SystemResetWarning,0828.6,5.00,000.00,028.7,026.4,000.0,037.3,030.3,12.7,0000.0,0010.02,0005.52,0004.99
2023-09-28 14:29:00,SystemResetWarning,0828.6,5.00,000.00,028.7,026.7,000.0,037.3,030.4,12.7,0000.0,0009.94,0005.50,0004.99
2023-09-28 14:30:00,SystemResetWarning,0828.6,5.00,000.00,028.7,026.9,000.0,037.3,030.4,12.6,0000.0,0010.19,0005.52,0004.98
2023-09-28 14:31:00,SystemResetWarning,0828.6,5.00,000.00,028.7,027.0,000.0,037.3,030.4,12.5,0000.0,0010.07,0005.50,0004.96
2023-09-28 14:32:00,SystemResetWarning,0828.6,5.00,000.00,028.7,027.2,000.0,037.3,030.4,12.5,0000.0,0010.61,0005.43,0004.93
2023-09-28 14:33:00,SystemResetWarning,0828.6,5.00,000.00,028.7,027.3,000.0,037.3,030.5,12.1,0000.0,0010.87,0005.41,0004.92
2023-09-28 14:34:00,SystemResetWarning,0828.6,5.00,000.00,028.8,027.4,000.0,037.3,030.5,12.1,0000.0,0010.79,0005.40,0004.92
2023-09-28 14:35:00,SystemResetWarning,0828.6,5.01,000.00,028.8,027.5,000.0,037.3,030.6,12.0,0000.0,0010.79,0005.39,0004.92
2023-09-28 14:36:00,SystemResetWarning,0828.6,5.00,000.00,028.8,027.6,000.0,037.3,030.6,12.3,0000.0,0010.86,0005.42,0004.92
2023-09-28 14:37:00,SystemResetWarning,0828.6,5.00,000.00,028.8,027.6,000.0,037.3,030.6,12.4,0000.0,0010.88,0005.43,0004.91
2023-09-28 14:38:00,SystemResetWarning,0828.6,5.00,000.00,028.9,027.7,000.0,037.3,030.7,12.4,0000.4,0010.81,0005.41,0004.90
2023-09-28 14:39:00,SystemResetWarning,0828.6,5.00,000.00,028.9,027.7,000.0,037.3,030.7,12.1,0002.9,0010.50,0005.43,0004.90
2023-09-28 14:40:00,SystemResetWarning,0828.6,5.00,000.00,028.9,027.8,000.0,037.3,030.7,12.3,0003.4,0010.17,0005.43,0004.91
2023-09-28 14:41:00,SystemResetWarning,0828.6,4.99,000.00,029.0,027.3,000.0,037.3,030.8,12.3,0003.0,0010.88,0005.43,0004.90
2023-09-28 14:42:00,SystemResetWarning,0828.6,5.00,000.00,028.9,025.6,000.0,037.3,030.6,12.1,0002.7,0011.74,0005.43,0004.91
2023-09-28 14:43:00,SystemResetWarning,0828.6,5.01,000.00,028.8,024.9,000.0,037.2,030.4,12.6,0002.6,0012.01,0005.47,0004.93
2023-09-28 14:44:00,SystemResetWarning,0828.5,5.01,000.00,028.8,025.1,000.0,037.2,030.3,12.4,0002.9,0012.35,0005.52,0004.95
2023-09-28 14:45:00,SystemResetWarning,0828.5,4.99,000.00,028.7,025.4,000.0,037.2,030.2,12.4,0003.0,0012.38,0005.54,0004.95
2023-09-28 14:46:00,SystemResetWarning,0828.5,4.99,000.00,028.6,025.8,000.0,037.2,030.2,12.3,0002.9,0012.32,0005.53,0004.94
2023-09-28 14:47:00,SystemResetWarning,0828.6,5.00,000.00,028.6,026.1,000.0,037.2,030.3,12.1,0002.7,0012.22,0005.53,0004.93
2023-09-28 14:48:00,SystemResetWarning,0828.6,5.01,000.00,028.6,026.4,000.0,037.2,030.3,11.8,0002.7,0012.20,0005.52,0004.94
2023-09-28 14:49:00,SystemResetWarning,0828.6,5.00,000.00,028.6,026.7,000.0,037.2,030.4,12.1,0002.9,0012.34,0005.56,0004.96
2023-09-28 14:50:00,SystemResetWarning,0828.6,5.01,000.00,028.7,026.9,000.0,037.2,030.4,12.5,0002.0,0012.28,0005.53,0004.97
2023-09-28 14:51:00,SystemResetWarning,0828.5,5.00,000.00,028.7,027.1,000.0,037.2,030.4,12.5,0000.0,0012.20,0005.54,0004.96
2023-09-28 14:52:00,SystemResetWarning,0828.4,4.99,000.00,028.7,027.2,000.0,037.2,030.5,12.2,0000.0,0011.12,0005.53,0004.98
2023-09-28 14:53:00,SystemResetWarning,0828.4,5.00,000.00,028.7,027.4,000.0,037.2,030.5,12.3,0002.7,0011.08,0005.56,0004.99
2023-09-28 14:54:00,SystemResetWarning,0828.4,5.00,000.00,028.8,027.5,000.0,037.2,030.5,12.4,0004.2,0010.59,0005.59,0005.00
2023-09-28 14:55:00,SystemResetWarning,0828.4,5.00,000.00,028.8,027.6,000.0,037.2,030.6,12.1,0004.1,0009.61,0005.59,0005.01
2023-09-28 14:56:00,SystemResetWarning,0828.4,5.00,000.00,028.8,027.7,000.0,037.3,030.6,12.4,0004.1,0010.07,0005.63,0005.03
2023-09-28 14:57:00,SystemResetWarning,0828.4,5.00,000.00,028.9,027.7,000.0,037.3,030.7,12.4,0004.2,0010.31,0005.67,0005.04
2023-09-28 14:58:00,SystemResetWarning,0828.4,5.00,000.00,028.9,026.5,000.0,037.2,030.6,12.5,0004.3,0010.88,0005.68,0005.04
2023-09-28 14:59:00,SystemResetWarning,0828.4,5.00,000.00,028.8,025.2,000.0,037.2,030.4,12.7,0004.1,0012.05,0005.68,0005.05
